Location: Auckland
(36.8670°S, 174.7670°E)
Time: 03:47:15
(UTC+12:00)

A-11 Canister half - Visible Passes

Search period start: 23 July 2019 00:00
Search period end: 02 August 2019 00:00
Orbit: 1514 x 1685 km, 47.2° (Epoch: 22 July)

Date Brightness Start Highest point End Pass type
(mag) Time Alt. Az. Time Alt. Az. Time Alt. Az.
23 Jul 9.2 18:56:21 10° WSW 19:05:26 54° SSE 19:10:19 29° E visible
23 Jul 9.4 21:01:26 10° WSW 21:08:32 55° W 21:08:32 55° W visible
24 Jul 9.2 18:33:25 10° WSW 18:42:28 52° SSE 18:49:02 20° E visible
24 Jul 9.0 20:38:32 10° WSW 20:47:16 73° WNW 20:47:16 73° WNW visible
24 Jul 11.2 22:45:09 10° W 22:45:30 11° W 22:45:30 11° W visible
25 Jul 9.3 18:10:28 10° WSW 18:19:28 51° SSE 18:27:51 13° E visible
25 Jul 8.9 20:15:37 10° WSW 20:24:56 79° NW 20:26:05 70° NNE visible
25 Jul 10.9 22:22:00 10° W 22:24:19 16° W 22:24:19 16° W visible
26 Jul 9.3 17:47:30 10° WSW 17:56:30 50° SSE 18:05:32 10° E visible
26 Jul 8.9 19:52:42 10° WSW 20:02:02 83° NW 20:05:00 50° NE visible
26 Jul 10.6 21:58:52 10° WSW 22:03:16 22° WNW 22:03:16 22° WNW visible
27 Jul 8.9 19:29:47 10° WSW 19:39:07 87° NW 19:44:04 33° NE visible
27 Jul 10.4 21:35:47 10° WSW 21:42:20 27° WNW 21:42:20 27° WNW visible
28 Jul 8.9 19:06:52 10° WSW 19:16:13 90° SSE 19:23:17 20° NE visible
28 Jul 10.2 21:12:43 10° WSW 21:20:20 29° NW 21:21:34 28° NW visible
29 Jul 8.9 18:43:57 10° WSW 18:53:19 86° SSE 19:02:42 10° ENE visible
29 Jul 10.2 20:49:40 10° WSW 20:57:29 31° NW 21:01:00 25° NNW visible
30 Jul 9.0 18:21:03 10° WSW 18:30:24 82° SSE 18:39:49 10° ENE visible
30 Jul 10.2 20:26:38 10° WSW 20:34:39 34° NW 20:40:41 17° N visible
31 Jul 9.0 17:58:07 10° WSW 18:07:28 79° SSE 18:16:52 10° ENE visible
31 Jul 10.1 20:03:37 10° WSW 20:11:48 36° NW 20:20:07 10° NNE visible
01 Aug 10.1 19:40:37 10° WSW 19:48:58 39° NW 19:57:26 10° NNE visible
